Eureka, Nunavut

6:56 PM CDT on April 21, 2018 (GMT -0500)
Eureka

Weather History for CWEU - February, 2014

Change the Weather History Date:

Saturday, February 8, 2014

  Actual Average Record
Temperature  
Mean Temperature -40 °F -  
Max Temperature -37 °F -30 °F 5 °F (2004)
Min Temperature -44 °F -43 °F -58 °F (2001)
Degree Days  
Heating Degree Days 106    
Moisture  
Dew Point -47 °F    
Average Humidity 68    
Maximum Humidity 82    
Minimum Humidity 52    
Precipitation  
Precipitation 0.00 in 0.00 in - ()
Sea Level Pressure  
Sea Level Pressure 29.84 in    
Wind  
Wind Speed 1 mph ()    
Max Wind Speed 2 mph    
Max Gust Speed -    
Visibility 14.6 miles    
Events Snow    
Averages and records for this station are not official NWS values.
T = Trace of Precipitation, MM = Missing Value Source: Averaged Metar Reports

Daily Weather History Graph

Daily Weather History Graph

Search for Another Location

Airport or City:

Astronomy

Dec. 31, 1969 Rise Set
Actual Time Sun does not set Sun does not set
Civil Twilight 10:05 AM CST 1:53 PM CST
Nautical Twilight 7:00 AM CST 4:58 PM CST
Astronomical Twilight 4:41 AM CST 7:19 PM CST
Moon No Moon Rise No Moon Set
Length of Visible Light 3h 48m
Length of Day
0h 00m
Waxing Gibbous, 69% of the Moon is Illuminated
Feb 8
Waxing Gibbous
Feb 14
Full
Feb 22
Last Quarter
Mar 1
New
Mar 8
First Quarter

Hourly Weather History & Observations

Time (CST) Temp. Dew Point Humidity Pressure Visibility Wind Dir Wind Speed Gust Speed Precip Events Conditions
12:00 AM -42 °F -48 °F 52% 29.83 in 15 mi SE 2.3 mph - - Snow Snow
12:00 AM -41.8 °F -49.0 °F 67% 29.83 in 15.0 mi SE 2.3 mph - N/A   Clear
1:00 AM -43.6 °F -49.0 °F 74% 29.83 in 15.0 mi Calm Calm - N/A   Clear
2:00 AM -43.6 °F -49.0 °F 74% 29.82 in 15.0 mi Calm Calm - N/A   Clear
3:00 AM -40.0 °F -47.2 °F 67% 29.82 in 15.0 mi Calm Calm - N/A   Clear
4:00 AM -40.0 °F -45.4 °F 74% 29.82 in 15.0 mi Calm Calm - N/A   Scattered Clouds
5:00 AM -40.0 °F -47.2 °F 67% 29.81 in 5.0 mi Calm Calm - N/A   Ice Crystals
6:00 AM -41 °F -46 °F 57% 29.81 in 15 mi Calm Calm - - Snow Snow
6:00 AM -40.0 °F -47.2 °F 67% 29.81 in 15.0 mi Calm Calm - N/A   Clear
7:00 AM -40.0 °F -43.6 °F 82% 29.80 in 15.0 mi SE 2.3 mph - N/A   Clear
8:00 AM -40.0 °F -47.2 °F 67% 29.81 in 15.0 mi East 2.3 mph - N/A   Clear
9:00 AM -38.2 °F -45.4 °F 67% 29.80 in 15.0 mi Calm Calm - N/A   Mostly Cloudy
10:00 AM -38.2 °F -45.4 °F 67% 29.81 in 15.0 mi Calm Calm - N/A   Mostly Cloudy
11:00 AM -40.0 °F -45.4 °F 74% 29.82 in 15.0 mi Calm Calm - N/A   Mostly Cloudy
11:45 AM - - N/A% - 15.0 mi Calm Calm - N/A   Partly Cloudy
12:00 PM -39 °F -45 °F 56% 29.83 in 15 mi Calm Calm - - Snow Light Snow
12:00 PM -38.2 °F -45.4 °F 67% 29.83 in 15.0 mi Calm Calm - N/A   Partly Cloudy
1:00 PM -41.8 °F -49.0 °F 67% 29.84 in 15.0 mi Calm Calm - N/A   Partly Cloudy
2:00 PM -40.0 °F -45.4 °F 74% 29.84 in 15.0 mi Calm Calm - N/A   Partly Cloudy
3:00 PM -41.8 °F -47.2 °F 74% 29.86 in 15.0 mi Calm Calm - N/A   Partly Cloudy
3:15 PM - - N/A% - 15.0 mi Calm Calm - N/A   Partly Cloudy
4:00 PM -41.8 °F -49.0 °F 67% 29.86 in 15.0 mi Calm Calm - N/A   Partly Cloudy
5:00 PM -43.6 °F -49.0 °F 74% 29.87 in 15.0 mi Calm Calm - N/A   Clear
6:00 PM -40 °F -46 °F 56% 29.88 in 15 mi Calm Calm - - Snow Snow
6:00 PM -40.0 °F -45.4 °F 74% 29.88 in 15.0 mi Calm Calm - N/A   Partly Cloudy
7:00 PM -41.8 °F -47.2 °F 74% 29.88 in 15.0 mi Calm Calm - N/A   Partly Cloudy
8:00 PM -41.8 °F -47.2 °F 74% 29.89 in 15.0 mi Calm Calm - N/A   Clear
9:00 PM -40.0 °F -47.2 °F 67% 29.90 in 15.0 mi Calm Calm - N/A   Clear